Time,TemperatureF,DewpointF,PressureIn,WindDirection,WindDirectionDegrees,WindSpeedMPH,WindSpeedGustMPH,Humidity,HourlyPrecipIn,Conditions,Clouds,dailyrainin,SolarRadiationWatts/m^2,SoftwareType,DateUTC
2013-07-19 00:01:00,79.0,75.8,30.09,NNW,333,0.0,0.0,90,0.00,FEW,,0.01,0.0,WeatherDisplay:10.37,2013-07-19 04:01:00,
2013-07-19 00:06:00,79.2,76.0,30.09,NNW,333,0.0,1.0,90,0.00,FEW,,0.01,0.0,WeatherDisplay:10.37,2013-07-19 04:06:00,
2013-07-19 00:11:00,79.0,75.8,30.09,NNW,333,0.0,0.0,90,0.00,FEW,,0.01,0.0,WeatherDisplay:10.37,2013-07-19 04:11:00,
2013-07-19 00:16:00,79.0,76.1,30.09,NNW,333,0.0,0.0,91,0.00,FEW,,0.01,0.0,WeatherDisplay:10.37,2013-07-19 04:16:00,
2013-07-19 00:26:00,79.0,76.1,30.09,NNW,333,0.0,0.0,91,0.00,FEW,,0.01,0.0,WeatherDisplay:10.37,2013-07-19 04:26:00,
2013-07-19 00:31:00,79.0,76.1,30.09,NNW,333,0.0,0.0,91,0.00,FEW,,0.01,0.0,WeatherDisplay:10.37,2013-07-19 04:31:00,
2013-07-19 00:41:00,79.0,76.1,30.09,NNW,333,0.0,0.0,91,0.00,FEW,,0.01,0.0,WeatherDisplay:10.37,2013-07-19 04:41:00,
2013-07-19 00:46:00,78.8,75.9,30.09,NNW,333,0.0,0.0,91,0.00,FEW,,0.01,0.0,WeatherDisplay:10.37,2013-07-19 04:46:00,
2013-07-19 00:51:00,78.8,75.9,30.09,NNW,333,0.0,0.0,91,0.00,FEW,,0.01,0.0,WeatherDisplay:10.37,2013-07-19 04:51:00,
2013-07-19 00:56:00,78.8,75.9,30.09,NNW,333,0.0,0.0,91,0.00,FEW,,0.01,0.0,WeatherDisplay:10.37,2013-07-19 04:56:00,
2013-07-19 01:01:00,78.6,75.8,30.09,NNW,333,0.0,0.0,91,0.00,RA,,0.00,0.0,WeatherDisplay:10.37,2013-07-19 05:01:00,
2013-07-19 01:11:00,78.6,75.8,30.09,NNW,333,0.0,0.0,91,0.00,FEW,,0.00,0.0,WeatherDisplay:10.37,2013-07-19 05:11:00,
2013-07-19 01:16:00,78.5,75.7,30.09,NNW,333,0.0,0.0,91,0.00,FEW,,0.00,0.0,WeatherDisplay:10.37,2013-07-19 05:16:00,
2013-07-19 01:21:00,78.5,75.7,30.08,NNW,333,0.0,0.0,91,0.00,FEW,,0.00,0.0,WeatherDisplay:10.37,2013-07-19 05:21:00,
2013-07-19 01:26:00,78.5,75.7,30.08,NNW,333,0.0,0.0,91,0.00,FEW,,0.00,0.0,WeatherDisplay:10.37,2013-07-19 05:26:00,
2013-07-19 01:31:00,78.3,75.5,30.08,NNW,333,0.0,0.0,91,0.00,FEW,,0.00,0.0,WeatherDisplay:10.37,2013-07-19 05:31:00,
2013-07-19 01:36:00,78.3,75.5,30.07,NNW,333,0.0,0.0,91,0.00,FEW,,0.00,0.0,WeatherDisplay:10.37,2013-07-19 05:36:00,
2013-07-19 01:41:00,78.1,75.3,30.07,NNW,333,0.0,0.0,91,0.00,FEW,,0.00,0.0,WeatherDisplay:10.37,2013-07-19 05:41:00,
2013-07-19 01:46:00,78.1,75.3,30.07,NNW,333,0.0,0.0,91,0.00,FEW,,0.00,0.0,WeatherDisplay:10.37,2013-07-19 05:46:00,
2013-07-19 01:51:00,78.1,75.3,30.07,NNW,333,0.0,0.0,91,0.00,FEW,,0.00,0.0,WeatherDisplay:10.37,2013-07-19 05:51:00,
2013-07-19 01:56:00,78.1,75.2,30.07,NNW,333,0.0,0.0,91,0.00,FEW,,0.00,0.0,WeatherDisplay:10.37,2013-07-19 05:56:00,
2013-07-19 02:01:00,77.9,75.1,30.07,NNW,333,0.0,0.0,91,0.00,FEW,,0.00,0.0,WeatherDisplay:10.37,2013-07-19 06:01:00,
2013-07-19 02:11:00,77.7,75.2,30.07,NNW,333,0.0,0.0,92,0.00,FEW,,0.00,0.0,WeatherDisplay:10.37,2013-07-19 06:11:00,
2013-07-19 02:16:00,77.7,75.2,30.07,NNW,333,0.0,0.0,92,0.00,FEW,,0.00,0.0,WeatherDisplay:10.37,2013-07-19 06:16:00,
2013-07-19 02:21:00,77.7,75.2,30.07,NNW,333,0.0,0.0,92,0.00,FEW,,0.00,0.0,WeatherDisplay:10.37,2013-07-19 06:21:00,
2013-07-19 02:26:00,77.7,75.2,30.07,NNW,333,0.0,0.0,92,0.00,FEW,,0.00,0.0,WeatherDisplay:10.37,2013-07-19 06:26:00,
2013-07-19 02:31:00,77.7,75.2,30.07,NNW,333,0.0,0.0,92,0.00,FEW,,0.00,0.0,WeatherDisplay:10.37,2013-07-19 06:31:00,
2013-07-19 02:36:00,77.6,75.1,30.07,NNW,333,0.0,0.0,92,0.00,FEW,,0.00,0.0,WeatherDisplay:10.37,2013-07-19 06:36:00,
2013-07-19 02:41:00,77.6,75.1,30.07,NNW,333,0.0,0.0,92,0.00,FEW,,0.00,0.0,WeatherDisplay:10.37,2013-07-19 06:41:00,
2013-07-19 02:46:00,77.6,75.1,30.07,NNW,333,0.0,0.0,92,0.00,FEW,,0.00,0.0,WeatherDisplay:10.37,2013-07-19 06:46:00,
2013-07-19 02:51:00,77.6,75.1,30.07,NNW,333,0.0,0.0,92,0.00,FEW,,0.00,0.0,WeatherDisplay:10.37,2013-07-19 06:51:00,
2013-07-19 02:56:00,77.6,75.1,30.07,NNW,333,0.0,0.0,92,0.00,FEW,,0.00,0.0,WeatherDisplay:10.37,2013-07-19 06:56:00,
2013-07-19 03:01:00,77.6,75.1,30.07,NNW,333,0.0,0.0,92,0.00,FEW,,0.00,0.0,WeatherDisplay:10.37,2013-07-19 07:01:00,
2013-07-19 03:11:00,77.4,74.9,30.06,NNW,333,0.0,0.0,92,0.00,FEW,,0.00,0.0,WeatherDisplay:10.37,2013-07-19 07:11:00,
2013-07-19 03:16:00,77.4,74.9,30.06,NNW,333,0.0,0.0,92,0.00,FEW,,0.00,0.0,WeatherDisplay:10.37,2013-07-19 07:16:00,
2013-07-19 03:21:00,77.4,74.9,30.06,NNW,333,0.0,0.0,92,0.00,FEW,,0.00,0.0,WeatherDisplay:10.37,2013-07-19 07:21:00,
2013-07-19 03:26:00,77.2,74.7,30.06,NNW,333,0.0,0.0,92,0.00,FEW,,0.00,0.0,WeatherDisplay:10.37,2013-07-19 07:26:00,
2013-07-19 03:31:00,77.2,74.7,30.06,NNW,333,0.0,0.0,92,0.00,FEW,,0.00,0.0,WeatherDisplay:10.37,2013-07-19 07:31:00,
2013-07-19 03:36:00,77.2,74.7,30.06,NNW,333,0.0,0.0,92,0.00,FEW,,0.00,0.0,WeatherDisplay:10.37,2013-07-19 07:36:00,
2013-07-19 03:41:00,77.0,74.5,30.06,NNW,333,0.0,0.0,92,0.00,FEW,,0.00,0.0,WeatherDisplay:10.37,2013-07-19 07:41:00,
2013-07-19 03:46:00,77.0,74.5,30.06,NNW,333,0.0,0.0,92,0.00,FEW,,0.00,0.0,WeatherDisplay:10.37,2013-07-19 07:46:00,
2013-07-19 03:51:00,77.0,74.5,30.06,NNW,333,0.0,0.0,92,0.00,FEW,,0.00,0.0,WeatherDisplay:10.37,2013-07-19 07:51:00,
2013-07-19 03:56:00,76.8,74.3,30.06,NNW,334,0.0,0.0,92,0.00,FEW,,0.00,0.0,WeatherDisplay:10.37,2013-07-19 07:56:00,
2013-07-19 04:01:00,76.8,74.3,30.06,NNW,334,0.0,0.0,92,0.00,FEW,,0.00,0.0,WeatherDisplay:10.37,2013-07-19 08:01:00,
2013-07-19 04:11:00,76.7,74.2,30.05,NNW,334,0.0,0.0,92,0.00,FEW,,0.00,0.0,WeatherDisplay:10.37,2013-07-19 08:11:00,
2013-07-19 04:16:00,76.7,74.2,30.05,NNW,334,0.0,0.0,92,0.00,FEW,,0.00,0.0,WeatherDisplay:10.37,2013-07-19 08:16:00,
2013-07-19 04:21:00,76.7,74.2,30.05,NNW,334,0.0,0.0,92,0.00,FEW,,0.00,0.0,WeatherDisplay:10.37,2013-07-19 08:21:00,
2013-07-19 04:26:00,76.5,74.0,30.05,NNW,334,0.0,0.0,92,0.00,FEW,,0.00,0.0,WeatherDisplay:10.37,2013-07-19 08:26:00,
2013-07-19 04:31:00,76.5,74.0,30.05,NNW,334,0.0,0.0,92,0.00,FEW,,0.00,0.0,WeatherDisplay:10.37,2013-07-19 08:31:00,
2013-07-19 04:36:00,76.5,74.0,30.05,NNW,334,0.0,0.0,92,0.00,FEW,,0.00,0.0,WeatherDisplay:10.37,2013-07-19 08:36:00,
2013-07-19 04:41:00,76.3,73.8,30.05,NNW,334,0.0,0.0,92,0.00,FEW,,0.00,0.0,WeatherDisplay:10.37,2013-07-19 08:41:00,
2013-07-19 04:46:00,76.3,73.8,30.05,NNW,334,0.0,0.0,92,0.00,FEW,,0.00,0.0,WeatherDisplay:10.37,2013-07-19 08:46:00,
2013-07-19 04:51:00,76.3,73.8,30.05,NNW,334,0.0,0.0,92,0.00,FEW,,0.00,0.0,WeatherDisplay:10.37,2013-07-19 08:51:00,
2013-07-19 04:56:00,76.1,73.6,30.05,NNW,334,0.0,0.0,92,0.00,FEW,,0.00,0.0,WeatherDisplay:10.37,2013-07-19 08:56:00,
2013-07-19 05:01:00,76.1,73.6,30.05,NNW,334,0.0,0.0,92,0.00,FEW,,0.00,0.0,WeatherDisplay:10.37,2013-07-19 09:01:00,
2013-07-19 05:11:00,76.1,73.6,30.05,NNW,334,0.0,0.0,92,0.00,FEW,,0.00,0.0,WeatherDisplay:10.37,2013-07-19 09:11:00,
2013-07-19 05:16:00,76.0,73.5,30.05,NNW,334,0.0,0.0,92,0.00,FEW,,0.00,0.0,WeatherDisplay:10.37,2013-07-19 09:16:00,
2013-07-19 05:21:00,76.0,73.5,30.06,NNW,334,0.0,0.0,92,0.00,FEW,,0.00,0.0,WeatherDisplay:10.37,2013-07-19 09:21:00,
2013-07-19 05:26:00,76.0,73.5,30.06,NNW,334,0.0,0.0,92,0.00,FEW,,0.00,0.0,WeatherDisplay:10.37,2013-07-19 09:26:00,
2013-07-19 05:31:00,75.8,73.3,30.06,NNW,334,0.0,0.0,92,0.00,FEW,,0.00,0.0,WeatherDisplay:10.37,2013-07-19 09:31:00,
2013-07-19 05:36:00,75.8,73.6,30.06,NNW,334,0.0,0.0,93,0.00,FEW,,0.00,0.0,WeatherDisplay:10.37,2013-07-19 09:36:00,
2013-07-19 05:41:00,75.8,73.6,30.06,NNW,334,0.0,0.0,93,0.00,FEW,,0.00,0.0,WeatherDisplay:10.37,2013-07-19 09:41:00,
2013-07-19 05:46:00,75.8,73.6,30.06,NNW,334,0.0,0.0,93,0.00,FEW,,0.00,0.0,WeatherDisplay:10.37,2013-07-19 09:46:00,
2013-07-19 05:51:00,75.8,73.6,30.07,NNW,334,0.0,0.0,93,0.00,FEW,,0.00,0.0,WeatherDisplay:10.37,2013-07-19 09:51:00,
2013-07-19 05:56:00,75.6,73.4,30.07,NNW,334,0.0,0.0,93,0.00,FEW,,0.00,0.0,WeatherDisplay:10.37,2013-07-19 09:56:00,
2013-07-19 06:01:00,75.6,73.4,30.07,NNW,334,0.0,0.0,93,0.00,FEW,,0.00,0.0,WeatherDisplay:10.37,2013-07-19 10:01:00,
2013-07-19 06:11:00,75.4,73.2,30.07,NNW,338,0.0,0.0,93,0.00,FEW,,0.00,0.0,WeatherDisplay:10.37,2013-07-19 10:11:00,
2013-07-19 06:16:00,75.4,73.2,30.07,NNW,338,0.0,0.0,93,0.00,FEW,,0.00,0.0,WeatherDisplay:10.37,2013-07-19 10:16:00,
2013-07-19 06:21:00,75.4,73.2,30.07,NNW,338,0.0,0.0,93,0.00,FEW,,0.00,0.0,WeatherDisplay:10.37,2013-07-19 10:21:00,
2013-07-19 06:26:00,75.4,73.2,30.07,WNW,294,0.0,0.0,93,0.00,FEW,,0.00,5.8,WeatherDisplay:10.37,2013-07-19 10:26:00,
2013-07-19 06:36:00,75.3,73.1,30.07,West,262,0.0,0.0,93,0.00,FEW,,0.00,10.3,WeatherDisplay:10.37,2013-07-19 10:36:00,
2013-07-19 06:41:00,75.3,73.1,30.07,West,259,0.0,0.0,93,0.00,FEW,,0.00,12.7,WeatherDisplay:10.37,2013-07-19 10:41:00,
2013-07-19 06:46:00,75.3,73.5,30.07,West,260,0.0,0.0,94,0.00,FEW,,0.00,16.1,WeatherDisplay:10.37,2013-07-19 10:46:00,
2013-07-19 06:51:00,75.3,73.5,30.07,West,263,0.0,0.0,94,0.00,FEW,,0.00,18.4,WeatherDisplay:10.37,2013-07-19 10:51:00,
2013-07-19 06:56:00,75.3,73.5,30.07,West,266,0.0,0.0,94,0.00,FEW,,0.00,21.9,WeatherDisplay:10.37,2013-07-19 10:56:00,
2013-07-19 07:01:00,75.4,73.5,30.07,West,267,0.0,0.0,94,0.00,SCT,,0.00,26.4,WeatherDisplay:10.37,2013-07-19 11:01:00,
2013-07-19 07:11:00,75.4,73.5,30.07,West,267,0.0,0.0,94,0.00,SCT,,0.00,32.2,WeatherDisplay:10.37,2013-07-19 11:11:00,
2013-07-19 07:16:00,75.4,73.6,30.07,West,269,0.0,0.0,94,0.00,SCT,,0.00,36.8,WeatherDisplay:10.37,2013-07-19 11:16:00,
2013-07-19 07:21:00,75.4,73.6,30.07,West,273,0.0,0.0,94,0.00,SCT,,0.00,38.0,WeatherDisplay:10.37,2013-07-19 11:21:00,
2013-07-19 07:26:00,75.4,73.6,30.07,West,276,0.0,0.0,94,0.00,SCT,,0.00,38.0,WeatherDisplay:10.37,2013-07-19 11:26:00,
2013-07-19 07:31:00,75.4,73.6,30.07,SW,233,0.0,0.0,94,0.00,SCT,,0.00,46.0,WeatherDisplay:10.37,2013-07-19 11:31:00,
2013-07-19 07:36:00,75.6,74.1,30.08,SSW,205,0.0,0.0,95,0.00,SCT,,0.00,52.9,WeatherDisplay:10.37,2013-07-19 11:36:00,
2013-07-19 07:41:00,75.6,74.1,30.08,SSW,192,0.0,0.0,95,0.00,SCT,,0.00,52.9,WeatherDisplay:10.37,2013-07-19 11:41:00,
2013-07-19 07:46:00,75.7,74.2,30.08,SSE,162,0.0,0.0,95,0.00,SCT,,0.00,48.3,WeatherDisplay:10.37,2013-07-19 11:46:00,
2013-07-19 07:51:00,75.8,74.3,30.08,SW,230,0.0,0.0,95,0.00,SCT,,0.00,66.7,WeatherDisplay:10.37,2013-07-19 11:51:00,
2013-07-19 07:56:00,75.8,74.3,30.08,NNW,330,0.0,0.0,95,0.00,SCT,,0.00,62.1,WeatherDisplay:10.37,2013-07-19 11:56:00,
2013-07-19 08:01:00,76.0,74.5,30.08,NNW,340,0.0,0.0,95,0.00,SCT,,0.00,66.7,WeatherDisplay:10.37,2013-07-19 12:01:00,
2013-07-19 08:11:00,76.1,74.6,30.08,North,0,0.0,0.0,95,0.00,SCT,,0.00,194.3,WeatherDisplay:10.37,2013-07-19 12:11:00,
2013-07-19 08:16:00,76.1,74.6,30.08,NNE,27,0.0,0.0,95,0.00,SCT,,0.00,264.5,WeatherDisplay:10.37,2013-07-19 12:16:00,
2013-07-19 08:21:00,76.5,74.9,30.09,NNE,32,0.0,0.0,95,0.00,SCT,,0.00,280.6,WeatherDisplay:10.37,2013-07-19 12:21:00,
2013-07-19 08:26:00,76.7,75.2,30.09,NNW,337,0.0,0.0,95,0.00,SCT,,0.00,309.4,WeatherDisplay:10.37,2013-07-19 12:26:00,
2013-07-19 08:31:00,76.8,75.3,30.09,NW,305,0.0,0.0,95,0.00,SCT,,0.00,330.1,WeatherDisplay:10.37,2013-07-19 12:31:00,
2013-07-19 08:36:00,77.2,75.7,30.09,NNW,330,0.0,0.0,95,0.00,SCT,,0.00,323.1,WeatherDisplay:10.37,2013-07-19 12:36:00,
2013-07-19 08:41:00,77.6,76.1,30.09,ENE,63,0.0,0.0,95,0.00,SCT,,0.00,365.7,WeatherDisplay:10.37,2013-07-19 12:41:00,
2013-07-19 08:46:00,77.9,76.3,30.09,ENE,76,0.0,0.0,95,0.00,SCT,,0.00,378.4,WeatherDisplay:10.37,2013-07-19 12:46:00,
2013-07-19 08:51:00,78.1,76.2,30.09,ENE,77,0.0,0.0,94,0.00,SCT,,0.00,405.9,WeatherDisplay:10.37,2013-07-19 12:51:00,
2013-07-19 08:56:00,78.3,76.1,30.09,NE,38,0.0,0.0,93,0.00,SCT,,0.00,430.1,WeatherDisplay:10.37,2013-07-19 12:56:00,
2013-07-19 09:01:00,78.5,76.0,30.09,WNW,302,0.0,0.0,92,0.00,FEW,,0.00,440.4,WeatherDisplay:10.37,2013-07-19 13:01:00,
2013-07-19 09:11:00,79.4,76.2,30.09,WSW,254,0.0,0.0,90,0.00,FEW,,0.00,483.0,WeatherDisplay:10.37,2013-07-19 13:11:00,
2013-07-19 09:16:00,79.8,76.2,30.09,West,271,0.0,0.0,89,0.00,FEW,,0.00,515.2,WeatherDisplay:10.37,2013-07-19 13:16:00,
2013-07-19 09:21:00,80.1,75.9,30.10,West,266,0.0,0.0,87,0.00,FEW,,0.00,517.5,WeatherDisplay:10.37,2013-07-19 13:21:00,
2013-07-19 09:26:00,80.5,76.3,30.10,SW,230,0.0,0.0,87,0.00,FEW,,0.00,552.0,WeatherDisplay:10.37,2013-07-19 13:26:00,
2013-07-19 09:31:00,80.8,75.5,30.10,ESE,113,0.0,0.0,84,0.00,FEW,,0.00,557.8,WeatherDisplay:10.37,2013-07-19 13:31:00,
2013-07-19 09:36:00,81.3,76.0,30.09,East,90,0.0,0.0,84,0.00,FEW,,0.00,570.4,WeatherDisplay:10.37,2013-07-19 13:36:00,
2013-07-19 09:41:00,81.8,75.8,30.09,East,85,0.0,0.0,82,0.00,FEW,,0.00,592.3,WeatherDisplay:10.37,2013-07-19 13:41:00,
2013-07-19 09:46:00,82.2,75.4,30.09,NE,45,0.0,0.0,80,0.00,FEW,,0.00,616.4,WeatherDisplay:10.37,2013-07-19 13:46:00,
2013-07-19 09:51:00,82.8,76.0,30.09,NW,307,0.0,0.0,80,0.00,FEW,,0.00,629.0,WeatherDisplay:10.37,2013-07-19 13:51:00,
2013-07-19 09:56:00,83.4,76.2,30.09,WNW,296,0.0,0.0,79,0.00,FEW,,0.00,638.3,WeatherDisplay:10.37,2013-07-19 13:56:00,
2013-07-19 10:01:00,83.9,76.3,30.09,NW,326,0.0,0.0,78,0.00,FEW,,0.00,634.8,WeatherDisplay:10.37,2013-07-19 14:01:00,
2013-07-19 10:11:00,84.7,76.7,30.09,NW,305,0.0,0.0,77,0.00,FEW,,0.00,696.9,WeatherDisplay:10.37,2013-07-19 14:11:00,
2013-07-19 10:16:00,85.1,77.1,30.09,NNW,346,0.0,0.0,77,0.00,FEW,,0.00,714.1,WeatherDisplay:10.37,2013-07-19 14:16:00,
2013-07-19 10:21:00,85.3,76.5,30.10,NE,49,0.0,0.0,75,0.00,FEW,,0.00,728.0,WeatherDisplay:10.37,2013-07-19 14:21:00,
2013-07-19 10:31:00,86.1,76.8,30.10,East,98,0.0,0.0,74,0.00,FEW,,0.00,786.6,WeatherDisplay:10.37,2013-07-19 14:31:00,
2013-07-19 10:36:00,86.3,76.6,30.10,ENE,73,0.0,0.0,73,0.00,FEW,,0.00,774.0,WeatherDisplay:10.37,2013-07-19 14:36:00,
2013-07-19 10:41:00,86.5,77.2,30.10,NNE,18,0.0,0.0,74,0.00,FEW,,0.00,813.0,WeatherDisplay:10.37,2013-07-19 14:41:00,
2013-07-19 10:46:00,86.8,76.7,30.10,WNW,284,0.0,0.0,72,0.00,FEW,,0.00,859.0,WeatherDisplay:10.37,2013-07-19 14:46:00,
2013-07-19 10:51:00,87.0,76.5,30.09,North,1,0.0,0.0,71,0.00,FEW,,0.00,840.6,WeatherDisplay:10.37,2013-07-19 14:51:00,
2013-07-19 10:56:00,87.2,77.5,30.09,NNE,31,0.0,0.0,73,0.00,FEW,,0.00,909.6,WeatherDisplay:10.37,2013-07-19 14:56:00,
2013-07-19 11:01:00,87.4,76.8,30.09,NNW,348,0.0,0.0,71,0.00,SCT,,0.00,933.8,WeatherDisplay:10.37,2013-07-19 15:01:00,
2013-07-19 11:11:00,87.8,76.4,30.09,NE,36,0.0,0.0,69,0.00,SCT,,0.00,893.5,WeatherDisplay:10.37,2013-07-19 15:11:00,
2013-07-19 11:16:00,87.8,75.5,30.09,NE,47,0.0,0.0,67,0.00,SCT,,0.00,915.4,WeatherDisplay:10.37,2013-07-19 15:16:00,
2013-07-19 11:21:00,88.0,76.1,30.09,NNE,22,0.0,0.0,68,0.00,SCT,,0.00,949.9,WeatherDisplay:10.37,2013-07-19 15:21:00,
2013-07-19 11:26:00,88.6,78.0,30.09,NNE,18,0.0,0.0,71,0.00,SCT,,0.00,976.4,WeatherDisplay:10.37,2013-07-19 15:26:00,
2013-07-19 11:31:00,88.7,76.8,30.09,NE,40,0.0,1.0,68,0.00,SCT,,0.00,1027.0,WeatherDisplay:10.37,2013-07-19 15:31:00,
2013-07-19 11:36:00,89.0,76.6,30.09,NW,318,1.0,5.0,67,0.00,SCT,,0.00,1104.0,WeatherDisplay:10.37,2013-07-19 15:36:00,
2013-07-19 11:41:00,89.5,76.1,30.09,WNW,301,0.0,3.0,65,0.00,SCT,,0.00,1104.0,WeatherDisplay:10.37,2013-07-19 15:41:00,
2013-07-19 11:46:00,89.3,76.4,30.09,North,7,1.0,2.0,66,0.00,SCT,,0.00,274.9,WeatherDisplay:10.37,2013-07-19 15:46:00,
2013-07-19 11:51:00,89.2,77.7,30.09,WNW,287,0.0,2.0,69,0.00,SCT,,0.00,1059.2,WeatherDisplay:10.37,2013-07-19 15:51:00,
2013-07-19 11:56:00,89.3,76.9,30.09,SSE,163,0.0,2.0,67,0.00,SCT,,0.00,1051.1,WeatherDisplay:10.37,2013-07-19 15:56:00,
2013-07-19 12:01:00,89.3,76.4,30.09,NNE,15,0.0,1.0,66,0.00,SCT,,0.00,271.4,WeatherDisplay:10.37,2013-07-19 16:01:00,
2013-07-19 12:11:00,89.3,76.4,30.09,North,353,1.0,5.0,66,0.00,SCT,,0.00,179.4,WeatherDisplay:10.37,2013-07-19 16:11:00,
2013-07-19 12:16:00,89.0,76.6,30.09,East,96,0.0,0.0,67,0.00,SCT,,0.00,192.1,WeatherDisplay:10.37,2013-07-19 16:16:00,
2013-07-19 12:21:00,88.8,77.7,30.09,SE,127,0.0,1.0,70,0.00,SCT,,0.00,1045.3,WeatherDisplay:10.37,2013-07-19 16:21:00,
2013-07-19 12:26:00,89.0,77.5,30.09,ESE,109,0.0,1.0,69,0.00,SCT,,0.00,187.4,WeatherDisplay:10.37,2013-07-19 16:26:00,
2013-07-19 12:31:00,88.8,76.9,30.09,NNW,331,0.0,1.0,68,0.00,SCT,,0.00,1039.6,WeatherDisplay:10.37,2013-07-19 16:31:00,
2013-07-19 12:36:00,89.3,77.3,30.08,West,276,0.0,0.0,68,0.00,SCT,,0.00,304.8,WeatherDisplay:10.37,2013-07-19 16:36:00,
2013-07-19 12:41:00,89.5,76.6,30.08,West,269,1.0,2.0,66,0.00,SCT,,0.00,1139.7,WeatherDisplay:10.37,2013-07-19 16:41:00,
2013-07-19 12:46:00,89.5,75.7,30.08,WNW,300,0.0,2.0,64,0.00,SCT,,0.00,384.1,WeatherDisplay:10.37,2013-07-19 16:46:00,
2013-07-19 12:51:00,89.7,75.9,30.08,North,5,0.0,2.0,64,0.00,SCT,,0.00,1096.0,WeatherDisplay:10.37,2013-07-19 16:51:00,
2013-07-19 13:01:00,90.3,75.5,30.08,NNW,327,1.0,6.0,62,0.00,SCT,,0.00,295.6,WeatherDisplay:10.37,2013-07-19 17:01:00,
2013-07-19 13:11:00,89.9,77.5,30.07,NW,315,0.0,2.0,67,0.00,SCT,,0.00,349.6,WeatherDisplay:10.37,2013-07-19 17:11:00,
2013-07-19 13:16:00,89.5,77.5,30.07,West,274,0.0,1.0,68,0.00,SCT,,0.00,1178.8,WeatherDisplay:10.37,2013-07-19 17:16:00,
2013-07-19 13:21:00,89.5,76.2,30.07,NW,318,0.0,3.0,65,0.00,SCT,,0.00,242.7,WeatherDisplay:10.37,2013-07-19 17:21:00,
2013-07-19 13:26:00,89.5,75.7,30.07,ENE,69,2.0,5.0,64,0.00,SCT,,0.00,1107.5,WeatherDisplay:10.37,2013-07-19 17:26:00,
2013-07-19 13:31:00,89.7,75.9,30.07,East,92,0.0,1.0,64,0.00,SCT,,0.00,1109.8,WeatherDisplay:10.37,2013-07-19 17:31:00,
2013-07-19 13:36:00,89.9,76.6,30.06,ESE,104,0.0,5.0,65,0.00,SCT,,0.00,1109.8,WeatherDisplay:10.37,2013-07-19 17:36:00,
2013-07-19 13:41:00,89.6,75.8,30.06,ENE,71,2.0,5.0,64,0.00,SCT,,0.00,279.4,WeatherDisplay:10.37,2013-07-19 17:41:00,
2013-07-19 13:46:00,89.9,76.6,30.06,ENE,65,0.0,2.0,65,0.00,SCT,,0.00,1079.8,WeatherDisplay:10.37,2013-07-19 17:46:00,
2013-07-19 13:51:00,90.4,77.0,30.06,NE,56,0.0,3.0,65,0.00,SCT,,0.00,1081.0,WeatherDisplay:10.37,2013-07-19 17:51:00,
2013-07-19 13:56:00,90.9,76.6,30.06,ENE,57,0.0,2.0,63,0.00,SCT,,0.00,1059.2,WeatherDisplay:10.37,2013-07-19 17:56:00,
2013-07-19 14:01:00,91.5,77.1,30.06,NNW,329,0.0,2.0,63,0.00,SCT,,0.00,1081.0,WeatherDisplay:10.37,2013-07-19 18:01:00,
2013-07-19 14:11:00,91.4,76.1,30.05,NNW,327,0.0,2.0,61,0.00,SCT,,0.00,1075.3,WeatherDisplay:10.37,2013-07-19 18:11:00,
2013-07-19 14:16:00,91.4,76.1,30.05,North,8,1.0,3.0,61,0.00,SCT,,0.00,1069.5,WeatherDisplay:10.37,2013-07-19 18:16:00,
2013-07-19 14:21:00,91.6,74.2,30.05,NNE,20,1.0,6.0,57,0.00,SCT,,0.00,1122.4,WeatherDisplay:10.37,2013-07-19 18:21:00,
2013-07-19 14:31:00,91.8,75.9,30.05,ENE,78,0.0,5.0,60,0.00,SCT,,0.00,301.3,WeatherDisplay:10.37,2013-07-19 18:31:00,
2013-07-19 14:36:00,91.6,75.7,30.04,SW,223,0.0,5.0,60,0.00,SCT,,0.00,335.8,WeatherDisplay:10.37,2013-07-19 18:36:00,
2013-07-19 14:46:00,91.4,75.6,30.04,NNW,346,1.0,4.0,60,0.00,SCT,,0.00,1005.1,WeatherDisplay:10.37,2013-07-19 18:46:00,
2013-07-19 14:51:00,91.4,75.1,30.03,North,1,1.0,6.0,59,0.00,SCT,,0.00,271.4,WeatherDisplay:10.37,2013-07-19 18:51:00,
2013-07-19 14:56:00,91.4,76.5,30.03,North,350,0.0,3.0,62,0.00,SCT,,0.00,1016.6,WeatherDisplay:10.37,2013-07-19 18:56:00,
2013-07-19 15:01:00,91.4,76.1,30.03,North,1,1.0,3.0,61,0.00,SCT,,0.00,1021.2,WeatherDisplay:10.37,2013-07-19 19:01:00,
2013-07-19 15:11:00,91.2,75.4,30.03,North,5,1.0,2.0,60,0.00,SCT,,0.00,997.0,WeatherDisplay:10.37,2013-07-19 19:11:00,
2013-07-19 15:16:00,91.3,76.0,30.03,ENE,65,1.0,2.0,61,0.00,SCT,,0.00,563.5,WeatherDisplay:10.37,2013-07-19 19:16:00,
2013-07-19 15:21:00,91.4,76.5,30.02,NNE,29,2.0,6.0,62,0.00,SCT,,0.00,299.0,WeatherDisplay:10.37,2013-07-19 19:21:00,
2013-07-19 15:26:00,91.4,76.6,30.02,NE,48,0.0,3.0,62,0.00,SCT,,0.00,1014.3,WeatherDisplay:10.37,2013-07-19 19:26:00,
2013-07-19 15:31:00,91.4,75.6,30.02,East,88,1.0,8.0,60,0.00,SCT,,0.00,323.1,WeatherDisplay:10.37,2013-07-19 19:31:00,
2013-07-19 15:36:00,91.2,74.9,30.02,SE,129,1.0,6.0,59,0.00,SCT,,0.00,173.7,WeatherDisplay:10.37,2013-07-19 19:36:00,
2013-07-19 15:41:00,91.0,75.2,30.02,East,79,2.0,6.0,60,0.00,SCT,,0.00,931.5,WeatherDisplay:10.37,2013-07-19 19:41:00,
2013-07-19 15:46:00,91.2,75.4,30.02,ENE,57,1.0,3.0,60,0.00,SCT,,0.00,923.5,WeatherDisplay:10.37,2013-07-19 19:46:00,
2013-07-19 15:51:00,91.2,74.9,30.02,ENE,58,0.0,6.0,59,0.00,SCT,,0.00,232.3,WeatherDisplay:10.37,2013-07-19 19:51:00,
2013-07-19 15:56:00,91.2,76.3,30.02,NE,42,2.0,8.0,62,0.00,SCT,,0.00,893.5,WeatherDisplay:10.37,2013-07-19 19:56:00,
2013-07-19 16:01:00,91.4,75.6,30.02,NNE,21,1.0,5.0,60,0.00,BKN,,0.00,925.8,WeatherDisplay:10.37,2013-07-19 20:01:00,
2013-07-19 16:11:00,91.8,74.9,30.01,NE,40,1.0,5.0,58,0.00,BKN,,0.00,853.3,WeatherDisplay:10.37,2013-07-19 20:11:00,
2013-07-19 16:16:00,91.8,76.0,30.01,SSE,166,0.0,5.0,60,0.00,BKN,,0.00,925.8,WeatherDisplay:10.37,2013-07-19 20:16:00,
2013-07-19 16:21:00,92.0,75.6,30.00,NE,51,1.0,2.0,59,0.00,BKN,,0.00,798.1,WeatherDisplay:10.37,2013-07-19 20:21:00,
2013-07-19 16:26:00,92.1,75.2,30.00,NE,52,0.0,2.0,58,0.00,BKN,,0.00,830.3,WeatherDisplay:10.37,2013-07-19 20:26:00,
2013-07-19 16:31:00,91.8,75.4,30.00,WNW,291,1.0,7.0,59,0.00,BKN,,0.00,794.6,WeatherDisplay:10.37,2013-07-19 20:31:00,
2013-07-19 16:36:00,91.6,74.2,30.00,NNW,338,2.0,7.0,57,0.00,BKN,,0.00,786.6,WeatherDisplay:10.37,2013-07-19 20:36:00,
2013-07-19 16:41:00,91.6,74.7,30.00,North,351,3.0,7.0,58,0.00,BKN,,0.00,709.5,WeatherDisplay:10.37,2013-07-19 20:41:00,
2013-07-19 16:46:00,91.7,74.8,30.00,NNW,327,1.0,5.0,58,0.00,BKN,,0.00,671.6,WeatherDisplay:10.37,2013-07-19 20:46:00,
2013-07-19 16:51:00,91.8,74.4,30.00,ESE,108,1.0,4.0,57,0.00,BKN,,0.00,669.3,WeatherDisplay:10.37,2013-07-19 20:51:00,
2013-07-19 16:56:00,91.8,74.4,30.00,ENE,77,1.0,6.0,57,0.00,BKN,,0.00,592.3,WeatherDisplay:10.37,2013-07-19 20:56:00,
2013-07-19 17:01:00,91.8,74.4,30.00,NE,45,1.0,5.0,57,0.00,SCT,,0.00,544.0,WeatherDisplay:10.37,2013-07-19 21:01:00,
2013-07-19 17:06:00,91.6,74.2,30.00,ENE,62,0.0,6.0,57,0.00,SCT,,0.00,522.1,WeatherDisplay:10.37,2013-07-19 21:06:00,
2013-07-19 17:16:00,91.6,74.2,30.00,NNE,21,1.0,4.0,57,0.00,SCT,,0.00,496.8,WeatherDisplay:10.37,2013-07-19 21:16:00,
2013-07-19 17:26:00,91.6,74.2,30.00,NNW,339,1.0,5.0,57,0.00,SCT,,0.00,471.5,WeatherDisplay:10.37,2013-07-19 21:26:00,
2013-07-19 17:31:00,91.6,74.7,30.00,West,278,0.0,2.0,58,0.00,SCT,,0.00,440.4,WeatherDisplay:10.37,2013-07-19 21:31:00,
2013-07-19 17:36:00,91.6,73.1,29.99,NNE,13,1.0,2.0,55,0.00,SCT,,0.00,388.7,WeatherDisplay:10.37,2013-07-19 21:36:00,
2013-07-19 17:41:00,91.6,74.2,29.99,NNW,339,0.0,1.0,57,0.00,SCT,,0.00,365.7,WeatherDisplay:10.37,2013-07-19 21:41:00,
2013-07-19 17:46:00,91.8,74.4,29.99,North,4,1.0,4.0,57,0.00,SCT,,0.00,330.1,WeatherDisplay:10.37,2013-07-19 21:46:00,
2013-07-19 17:51:00,91.8,73.3,29.99,NE,51,1.0,5.0,55,0.00,SCT,,0.00,311.6,WeatherDisplay:10.37,2013-07-19 21:51:00,
2013-07-19 17:56:00,91.8,73.9,29.99,ENE,57,1.0,3.0,56,0.00,SCT,,0.00,296.7,WeatherDisplay:10.37,2013-07-19 21:56:00,
2013-07-19 18:01:00,91.7,73.8,29.99,ENE,61,1.0,5.0,56,0.00,SCT,,0.00,287.5,WeatherDisplay:10.37,2013-07-19 22:01:00,
2013-07-19 18:11:00,91.6,73.7,29.98,NE,34,0.0,3.0,56,0.00,SCT,,0.00,287.5,WeatherDisplay:10.37,2013-07-19 22:11:00,
2013-07-19 18:16:00,91.6,73.7,29.98,ENE,60,0.0,2.0,56,0.00,SCT,,0.00,299.0,WeatherDisplay:10.37,2013-07-19 22:16:00,
2013-07-19 18:21:00,91.6,73.7,29.98,NNE,25,2.0,5.0,56,0.00,SCT,,0.00,307.1,WeatherDisplay:10.37,2013-07-19 22:21:00,
2013-07-19 18:26:00,91.5,73.5,29.98,NW,326,2.0,7.0,56,0.00,SCT,,0.00,307.1,WeatherDisplay:10.37,2013-07-19 22:26:00,
2013-07-19 18:31:00,91.4,72.4,29.98,NE,49,2.0,7.0,54,0.00,SCT,,0.00,296.7,WeatherDisplay:10.37,2013-07-19 22:31:00,
2013-07-19 18:36:00,91.4,74.0,29.98,ENE,71,0.0,1.0,57,0.00,SCT,,0.00,277.1,WeatherDisplay:10.37,2013-07-19 22:36:00,
2013-07-19 18:41:00,91.2,73.3,29.98,ENE,62,0.0,2.0,56,0.00,SCT,,0.00,56.4,WeatherDisplay:10.37,2013-07-19 22:41:00,
2013-07-19 18:46:00,91.0,73.1,29.98,ENE,58,0.0,3.0,56,0.00,SCT,,0.00,56.4,WeatherDisplay:10.37,2013-07-19 22:46:00,
2013-07-19 18:51:00,90.5,72.1,29.98,NNE,33,1.0,5.0,55,0.00,SCT,,0.00,46.0,WeatherDisplay:10.37,2013-07-19 22:51:00,
2013-07-19 18:56:00,90.0,71.6,29.98,North,353,1.0,5.0,55,0.00,SCT,,0.00,42.5,WeatherDisplay:10.37,2013-07-19 22:56:00,
2013-07-19 19:01:00,89.6,71.8,29.98,North,3,1.0,2.0,56,0.00,SCT,,0.00,58.6,WeatherDisplay:10.37,2013-07-19 23:01:00,
2013-07-19 19:11:00,88.9,72.2,29.98,SSE,161,0.0,2.0,58,0.00,SCT,,0.00,29.9,WeatherDisplay:10.37,2013-07-19 23:11:00,
2013-07-19 19:16:00,88.7,72.5,29.98,South,185,0.0,0.0,59,0.00,SCT,,0.00,125.3,WeatherDisplay:10.37,2013-07-19 23:16:00,
2013-07-19 19:21:00,88.4,71.7,29.98,SSE,155,0.0,0.0,58,0.00,SCT,,0.00,29.9,WeatherDisplay:10.37,2013-07-19 23:21:00,
2013-07-19 19:26:00,88.2,72.6,29.98,ESE,115,0.0,0.0,60,0.00,SCT,,0.00,24.1,WeatherDisplay:10.37,2013-07-19 23:26:00,
2013-07-19 19:31:00,88.0,72.4,29.98,ESE,109,0.0,0.0,60,0.00,SCT,,0.00,21.9,WeatherDisplay:10.37,2013-07-19 23:31:00,
2013-07-19 19:36:00,87.7,72.6,29.98,ESE,109,0.0,0.0,61,0.00,SCT,,0.00,20.7,WeatherDisplay:10.37,2013-07-19 23:36:00,
2013-07-19 19:41:00,87.4,72.8,29.98,ESE,109,0.0,0.0,62,0.00,SCT,,0.00,18.4,WeatherDisplay:10.37,2013-07-19 23:41:00,
2013-07-19 19:46:00,87.2,72.6,29.98,ESE,109,0.0,0.0,62,0.00,SCT,,0.00,16.1,WeatherDisplay:10.37,2013-07-19 23:46:00,
2013-07-19 19:51:00,86.7,72.6,29.98,ESE,109,0.0,0.0,63,0.00,SCT,,0.00,13.8,WeatherDisplay:10.37,2013-07-19 23:51:00,
2013-07-19 19:56:00,86.5,72.4,29.98,ESE,109,0.0,0.0,63,0.00,SCT,,0.00,12.7,WeatherDisplay:10.37,2013-07-19 23:56:00,
2013-07-19 20:01:00,86.3,72.7,29.98,ESE,109,0.0,0.0,64,0.00,SCT,,0.00,10.3,WeatherDisplay:10.37,2013-07-20 00:01:00,
2013-07-19 20:11:00,85.7,73.0,29.98,NE,55,0.0,0.0,66,0.00,SCT,,0.00,0.0,WeatherDisplay:10.37,2013-07-20 00:11:00,
2013-07-19 20:16:00,85.5,72.8,29.98,NE,43,0.0,0.0,66,0.00,SCT,,0.00,0.0,WeatherDisplay:10.37,2013-07-20 00:16:00,
2013-07-19 20:26:00,84.9,72.7,29.98,NNE,23,0.0,0.0,67,0.00,SCT,,0.00,0.0,WeatherDisplay:10.37,2013-07-20 00:26:00,
2013-07-19 20:31:00,84.6,72.8,29.98,NNE,23,0.0,0.0,68,0.00,SCT,,0.00,0.0,WeatherDisplay:10.37,2013-07-20 00:31:00,
2013-07-19 20:36:00,84.3,73.0,29.98,ESE,119,0.0,0.0,69,0.00,SCT,,0.00,0.0,WeatherDisplay:10.37,2013-07-20 00:36:00,
2013-07-19 20:41:00,84.1,72.8,29.98,SW,225,0.0,0.0,69,0.00,SCT,,0.00,0.0,WeatherDisplay:10.37,2013-07-20 00:41:00,
2013-07-19 20:46:00,83.8,73.0,29.98,West,263,0.0,0.0,70,0.00,SCT,,0.00,0.0,WeatherDisplay:10.37,2013-07-20 00:46:00,
2013-07-19 20:51:00,83.6,73.2,29.98,WSW,241,0.0,0.0,71,0.00,SCT,,0.00,0.0,WeatherDisplay:10.37,2013-07-20 00:51:00,
2013-07-19 20:56:00,83.2,72.8,29.98,SW,219,0.0,2.0,71,0.00,SCT,,0.00,0.0,WeatherDisplay:10.37,2013-07-20 00:56:00,
2013-07-19 21:01:00,82.9,72.9,29.98,ESE,102,0.0,1.0,72,0.00,FEW,,0.00,0.0,WeatherDisplay:10.37,2013-07-20 01:01:00,
2013-07-19 21:11:00,82.4,72.9,29.98,NE,35,0.0,1.0,73,0.00,FEW,,0.00,0.0,WeatherDisplay:10.37,2013-07-20 01:11:00,
2013-07-19 21:16:00,82.4,73.3,29.98,NE,50,0.0,1.0,74,0.00,FEW,,0.00,0.0,WeatherDisplay:10.37,2013-07-20 01:16:00,
2013-07-19 21:21:00,82.2,73.5,29.98,NE,51,0.0,1.0,75,0.00,FEW,,0.00,0.0,WeatherDisplay:10.37,2013-07-20 01:21:00,
2013-07-19 21:26:00,82.2,73.5,29.98,NE,51,0.0,0.0,75,0.00,FEW,,0.00,0.0,WeatherDisplay:10.37,2013-07-20 01:26:00,
2013-07-19 21:31:00,82.0,73.7,29.98,NE,49,0.0,1.0,76,0.00,FEW,,0.00,0.0,WeatherDisplay:10.37,2013-07-20 01:31:00,
2013-07-19 21:36:00,82.0,73.7,29.99,NE,44,1.0,3.0,76,0.00,FEW,,0.00,0.0,WeatherDisplay:10.37,2013-07-20 01:36:00,
2013-07-19 21:41:00,81.8,73.9,29.99,NE,36,0.0,1.0,77,0.00,FEW,,0.00,0.0,WeatherDisplay:10.37,2013-07-20 01:41:00,
2013-07-19 21:46:00,81.8,73.9,29.99,NE,36,0.0,1.0,77,0.00,FEW,,0.00,0.0,WeatherDisplay:10.37,2013-07-20 01:46:00,
2013-07-19 21:51:00,81.6,73.7,30.00,NE,41,0.0,1.0,77,0.00,FEW,,0.00,0.0,WeatherDisplay:10.37,2013-07-20 01:51:00,
2013-07-19 21:56:00,81.6,73.7,30.00,NE,39,0.0,2.0,77,0.00,FEW,,0.00,0.0,WeatherDisplay:10.37,2013-07-20 01:56:00,
2013-07-19 22:01:00,81.5,73.6,30.00,NNE,31,0.0,1.0,77,0.00,FEW,,0.00,0.0,WeatherDisplay:10.37,2013-07-20 02:01:00,
2013-07-19 22:11:00,81.3,73.7,30.01,NE,53,0.0,2.0,78,0.00,FEW,,0.00,0.0,WeatherDisplay:10.37,2013-07-20 02:11:00,
2013-07-19 22:16:00,81.2,73.7,30.01,NNE,16,1.0,2.0,78,0.00,FEW,,0.00,0.0,WeatherDisplay:10.37,2013-07-20 02:16:00,
2013-07-19 22:26:00,81.1,73.6,30.01,NNE,30,0.0,1.0,78,0.00,FEW,,0.00,0.0,WeatherDisplay:10.37,2013-07-20 02:26:00,
2013-07-19 22:31:00,81.1,73.6,30.01,NNE,32,0.0,0.0,78,0.00,FEW,,0.00,0.0,WeatherDisplay:10.37,2013-07-20 02:31:00,
2013-07-19 22:36:00,80.9,73.4,30.02,NNE,31,1.0,2.0,78,0.00,FEW,,0.00,0.0,WeatherDisplay:10.37,2013-07-20 02:36:00,
2013-07-19 22:41:00,80.9,73.4,30.02,NNE,19,0.0,0.0,78,0.00,FEW,,0.00,0.0,WeatherDisplay:10.37,2013-07-20 02:41:00,
2013-07-19 22:46:00,80.8,73.3,30.02,NNE,13,0.0,0.0,78,0.00,FEW,,0.00,0.0,WeatherDisplay:10.37,2013-07-20 02:46:00,
2013-07-19 22:51:00,80.7,73.2,30.02,NNE,13,0.0,0.0,78,0.00,FEW,,0.00,0.0,WeatherDisplay:10.37,2013-07-20 02:51:00,
2013-07-19 22:56:00,80.7,73.6,30.02,NNE,13,0.0,0.0,79,0.00,FEW,,0.00,0.0,WeatherDisplay:10.37,2013-07-20 02:56:00,
2013-07-19 23:01:00,80.5,73.4,30.02,NNE,13,0.0,0.0,79,0.00,BKN,,0.00,0.0,WeatherDisplay:10.37,2013-07-20 03:01:00,
2013-07-19 23:11:00,80.3,73.6,30.03,NNE,22,0.0,0.0,80,0.00,BKN,,0.00,0.0,WeatherDisplay:10.37,2013-07-20 03:11:00,
2013-07-19 23:16:00,80.1,73.4,30.03,NNE,24,0.0,1.0,80,0.00,BKN,,0.00,0.0,WeatherDisplay:10.37,2013-07-20 03:16:00,
2013-07-19 23:21:00,79.9,73.2,30.03,NE,38,0.0,1.0,80,0.00,BKN,,0.00,0.0,WeatherDisplay:10.37,2013-07-20 03:21:00,
2013-07-19 23:26:00,79.9,73.5,30.03,East,88,0.0,0.0,81,0.00,BKN,,0.00,0.0,WeatherDisplay:10.37,2013-07-20 03:26:00,
2013-07-19 23:31:00,79.8,73.4,30.03,East,94,0.0,0.0,81,0.00,BKN,,0.00,0.0,WeatherDisplay:10.37,2013-07-20 03:31:00,
2013-07-19 23:36:00,79.8,73.4,30.03,East,85,0.0,0.0,81,0.00,BKN,,0.00,0.0,WeatherDisplay:10.37,2013-07-20 03:36:00,
2013-07-19 23:41:00,79.6,73.3,30.03,East,84,0.0,0.0,81,0.00,BKN,,0.00,0.0,WeatherDisplay:10.37,2013-07-20 03:41:00,
2013-07-19 23:46:00,79.6,73.3,30.03,East,81,0.0,0.0,81,0.00,BKN,,0.00,0.0,WeatherDisplay:10.37,2013-07-20 03:46:00,
2013-07-19 23:51:00,79.4,73.1,30.03,East,80,0.0,0.0,81,0.00,BKN,,0.00,0.0,WeatherDisplay:10.37,2013-07-20 03:51:00,
2013-07-19 23:56:00,79.4,73.4,30.03,East,80,0.0,0.0,82,0.00,BKN,,0.00,0.0,WeatherDisplay:10.37,2013-07-20 03:56:00,